Location: Fontbon
(47.0421°N, 1.7890°E)
Time: 15:10:24
(UTC+00:00)

Spot 4 - Pass Details

Date: 20 July 2025
Orbit: 696 x 716 km, 98.3° (Epoch: 15 December)

Event Time Altitude Azimuth Distance (km) Brightness Sun altitude
Exits shadow 23:03:03 52° 157° (SSE) 886 3.9 -21.3°
Maximum altitude 23:04:15 85° 75° (ENE) 722 3.8 -21.4°
Drops below altitude 10° 23:09:04 10° 347° (NNW) 2,195 7.5 -21.5°
Sets 23:11:20 0° 347° (NNW) 3,116 8.7 -21.6°
